Location: Schommer Observatory
(40.5200°N, 74.4500°W)
Time: 17:01:10
(UTC-04:00)

N. Korean satellite - Visible Passes

Search period start: 18 September 2018 00:00
Search period end: 28 September 2018 00:00
Orbit: 458 x 511 km, 97.2° (Epoch: 17 September)

Date Brightness Start Highest point End Pass type
(mag) Time Alt. Az. Time Alt. Az. Time Alt. Az.
19 Sep 10.5 19:48:34 10° W 19:49:04 10° W 19:49:33 10° W visible
23 Sep 10.2 19:43:48 10° WSW 19:45:06 12° W 19:46:25 10° WNW visible
24 Sep 9.5 19:17:43 10° SSW 19:20:34 23° W 19:23:29 10° NW visible
26 Sep 10.3 06:21:04 10° ENE 06:23:05 14° E 06:25:06 10° SE visible
27 Sep 10.1 19:39:21 10° WSW 19:41:06 13° W 19:42:53 10° WNW visible
